Regional Weather Roundup
Issued by NWS

Home | Current Version | Previous Version | Graphics & Text | Print | Product List | Glossary On
Versions: 1 2 3 4 5 6 7 8 9 10 11 12 13 14 15 16 17 18 19 20 21 22 23 24 25 26 27 28 29 30 31 32 33 34 35 36 37 38 39 40 41 42 43 44 45 46 47 48 49 50
000
ASUS45 KBOU 021907
RWRCO

WEATHER ROUNDUP FOR COLORADO
NATIONAL WEATHER SERVICE DENVER/BOULDER CO
100 PM MDT SAT MAY 02 2015

NOTE: "FAIR" INDICATES FEW OR NO CLOUDS BELOW 12000 FEET WITH NO
SIGNIFICANT WEATHER AND/OR OBSTRUCTIONS TO VISIBILITY.

COZ001>005-013-030-031-022000-
...NORTHWEST COLORADO...

CITY           SKY/WX    TMP DP  RH WIND       PRES   REMARKS
CRAIG          MOSUNNY   71  37  28 W10       30.01F
HAYDEN         MOSUNNY   66  32  28 NW10G16   30.03F
MEEKER         MOSUNNY   73  32  22 VRB5      30.02F
MOUNT WERNER   NOT AVBL
STEAMBOAT SPGS MOSUNNY   66  32  28 W14G21    30.05F
WALDEN         MOSUNNY   63  28  27 SW16G23   30.11F
$$

COZ006>008-011-022000-
...WEST CENTRAL VALLEYS...

CITY           SKY/WX    TMP DP  RH WIND       PRES   REMARKS
GRAND JUNCTION MOSUNNY   73  36  25 VRB5      29.96F
MONTROSE       PTSUNNY   78  30  17 NW13      30.04F
EAGLE          MOSUNNY   73  27  17 SW18G31   30.03F
RIFLE          MOSUNNY   78  33  19 W17       29.97F
DELTA          PTSUNNY   80  24  12 S12G22    29.98F
NUCLA          PTSUNNY   73  25  16 NW15G22   30.08F
$$

COZ017>023-064>068-022000-
...SOUTHWEST COLORADO...

CITY           SKY/WX    TMP DP  RH WIND       PRES   REMARKS
DURANGO        MOSUNNY   72  30  21 W12G18    30.10F
CORTEZ         SUNNY     77  28  16 NW10      30.06F
PAGOSA SPRINGS MOSUNNY   65  22  19 SW10      30.16S THUNDER
TELLURIDE      CLOUDY    55  26  32 CALM      30.26F
WOLF CREEK PAS NOT AVBL
$$

COZ009-010-012-014-032>034-037-058>063-022000-
...CENTRAL COLORADO...

CITY           SKY/WX    TMP DP  RH WIND       PRES   REMARKS
ASPEN          LGT RAIN  55  28  35 W16G32    30.19R
BUENA VISTA    NOT AVBL
COPPER MTN     CLOUDY    45  19  36 W36G46    30.33F
BERTHOUD PASS  PTSUNNY   36  30  80 W29G37    30.36F
COTTONWOOD PAS PTSUNNY   59  19  21 N7        30.22F
GUNNISON       PTSUNNY   64  27  24 W13       30.15F
KREMMLING      LGT RAIN  59  36  41 N8        30.11F
LEADVILLE      PTSUNNY   52  21  29 NW23G35   30.23S
MONARCH PASS   PTSUNNY   43  19  39 W30G46    30.45F
SALIDA         MOSUNNY   71  19  13 SW20G26   30.15F
SUNLIGHT       PTSUNNY   50  28  43 CALM      30.32S
WILKERSON PASS MOSUNNY   48  21  34 CALM      30.33F
$$

COZ069>075-022000-
...SAN LUIS VALLEY/SANGRE DE CRISTO MOUNTAINS...

CITY           SKY/WX    TMP DP  RH WIND       PRES   REMARKS
ALAMOSA        PTSUNNY   69  22  16 S8        30.11F
LA VETA PASS   PTSUNNY   55  21  26 MISG      30.28F
SAGUACHE       CLOUDY    59  28  31 SW14G35   30.16R
$$

COZ035-036-038>040-022000-
...NORTHERN COLORADO FRONT RANGE...

CITY           SKY/WX    TMP DP  RH WIND       PRES   REMARKS
DENVER INTL AP PTSUNNY   75  33  21 VRB3      29.97F
DMNS CITY PARK   N/A     76  34  21 E3        29.96F
AURORA         PTSUNNY   71  31  23 CALM      29.99F
FRONT RANGE AP NOT AVBL
ERIE MUNI ARPT CLOUDY    74  32  20 CALM      29.95F
BOULDER MUN AP CLOUDY    73  37  27 SE8       29.94F
CENTENNIAL     CLOUDY    68  34  28 SE3       30.00F
BROOMFIELD     NOT AVBL
FORT COLLINS   CLOUDY    72  43  35 S5        29.94F
LONGMONT       CLOUDY    78  38  23 CALM      29.95F
$$

COZ041-046-047-076>085-087-088-022000-
...PIKES PEAK/PALMER DIVIDE AND SOUTHERN FOOTHILLS...

CITY           SKY/WX    TMP DP  RH WIND       PRES   REMARKS
COLO. SPRINGS  PTSUNNY   71  29  21 S16       30.02F
A. F. ACADEMY  PTSUNNY   73  24  16 W12       30.01F
ELLICOTT       PTSUNNY  N/A N/A N/A NE5       30.00F
FALCON         PTSUNNY   69  27  21 SW9       30.07F
FORT CARSON    PTSUNNY   72  31  22 NE5       29.99F THUNDER
LIMON          MOSUNNY   75  26  16 W9        29.98F
MONUMENT HILL  PTSUNNY   68  30  24 S5        30.06F
TRINIDAD       PTSUNNY   77  25  14 VRB5      30.01F
$$

COZ042>045-048>051-090-091-022000-
...NORTHEAST COLORADO...

CITY           SKY/WX    TMP DP  RH WIND       PRES   REMARKS
GREELEY ARPT   PTSUNNY   75  41  29 W7        29.94F
AKRON          MOSUNNY   75  37  25 W8        29.94F
BURLINGTON     MOSUNNY   81  37  20 VRB5      29.92F
WRAY           SUNNY     82  41  23 W5        29.89F
STERLING       MOSUNNY   77  45  31 SW7       29.88F
HOLYOKE        NOT AVBL
FORT MORGAN    MOSUNNY   76 -31   1 SW10      29.94F
$$

COZ086-089-092>099-022000-
...SOUTHEAST COLORADO...

CITY           SKY/WX    TMP DP  RH WIND       PRES   REMARKS
PUEBLO         PTSUNNY   79  33  19 VRB6      29.93F
LA JUNTA       MOSUNNY   84  34  16 SW7G17    29.92F
LAMAR          MOSUNNY   79  51  37 NW9       29.89F
SPRINGFIELD      N/A     79  43  27 VRB7      29.93F
$$



USA.gov is the U.S. government's official web portal to all federal, state and local government web resources and services.